Location: Unspecified
(0.0000°N, 0.0000°E)
Time: 15:18:04
(UTC+00:00)

COSMOS 2391 - Pass Details

Date: 06 June 2023
Orbit: 1466 x 1505 km, 82.5° (Epoch: 25 September)

Event Time Altitude Azimuth Distance (km) Brightness Sun altitude
Exits shadow 04:26:51 21° 207° (SSW) 2,907 9.5 -21.1°
Maximum altitude 04:32:50 51° 273° (W) 1,831 8.5 -19.7°
Drops below altitude 10° 04:41:14 10° 346° (NNW) 3,639 10.6 -17.8°
Sets 04:44:14 0° 352° (N) 4,613 11.2 -17.1°
